Погода в Корсёре

Дания     55°19′36″N   11°08′42″E
темп.,
°C
ветер,
м/с
пор.,
м/с
влажн.,
%
обл.,
%
осадки,
мм/ч
давл.,
гПа
погр.,
м
13 августа, сб
сб1323:00+19в45675 0.0 102185
02:00+18вюв45734 0.0 102195
05:00+18вюв44760 0.0 102185
08:00+20вюв45695 0.0 1020134
11:00+24юв45535 0.0 1021364
14:00+25ю43525 0.0 1020753
17:00+25ю335354 0.0 1019651
20:00+23вюв4661100 0.0 101881
14 августа, вс
вс1423:00+20вюв4776100 0.0 101894
02:00+20вюв3581100 0.0 101873
05:00+20в347693 0.0 101666
08:00+21в5767100 0.0 1016172
11:00+22в587098 0.3 1015235
14:00+25вюв79555 0.3 1014463
17:00+25вюв810535 0.0 1012388
20:00+23в812595 0.0 1010266
15 августа, пн
пн1523:00+20в815695 0.0 1010329
02:00+19в7147712 0.0 1008279
05:00+19в611915 0.0 1007258
08:00+21вюв69795 0.0 1006210
11:00+25вюв79625 0.0 1006394
14:00+26вюв810585 0.0 1005585
17:00+26вюв8105858 0.0 1004448
20:00+23вюв8137284 0.1 1003272
16 августа, вт
вт1623:00+21ююв598698 0.1 1004220
02:00+20в5594100 0.4 100582
05:00+20ююв2290100 0.0 100425
08:00+21з22846 0.0 100564
11:00+22ююз447248 0.0 1007268
14:00+22ююз44696 0.3 1007236
17:00+23ююз5667100 0.0 1008193
20:00+20ссз61082100 0.1 1008190
17 августа, ср
ср1723:00+21сз35768 0.1 101050
02:00+20ссз2282100 0.1 101030
05:00+20з1181100 0.0 101111
08:00+21юз3372100 0.0 101281
11:00+22юз346994 0.0 1012189
14:00+23ююз4564100 0.0 1012349
17:00+23ююз3365100 0.0 1011253
20:00+21зсз81268100 0.1 1012395